| time (UTC) | temp F | wind direction | speed MPH | gust MPH | rain 1hr in | rain 24hr in | rain mn in | humidity % | barometer mb |
| 20260506062502 | 64 | 0 | 0.0 | 0.0 | 0.00 | 0.00 | 0.00 | 77 | 1014.3 |
| 20260506062002 | 64 | 0 | 0.0 | 0.0 | 0.00 | 0.00 | 0.00 | 77 | 1014.2 |
| 20260506061502 | 64 | 111 | 0.0 | 1.0 | 0.00 | 0.00 | 0.00 | 77 | 1014.2 |
| 20260506061002 | 64 | 111 | 0.0 | 1.0 | 0.00 | 0.00 | 0.00 | 77 | 1014.2 |
| 20260506060502 | 64 | 0 | 0.0 | 0.0 | 0.00 | 0.00 | 0.00 | 78 | 1014.4 |
| 20260506051002 | 61 | 0 | 0.0 | 0.0 | 0.00 | 0.00 | 0.00 | 81 | 1014.6 |
| 20260506050502 | 60 | 0 | 0.0 | 0.0 | 0.00 | 0.00 | 0.00 | 81 | 1014.9 |
| 20260506045002 | 60 | 0 | 0.0 | 0.0 | 0.00 | 0.00 | 0.00 | 81 | 1015.4 |
| 20260506044502 | 60 | 0 | 0.0 | 0.0 | 0.00 | 0.00 | 0.00 | 81 | 1015.3 |
| 20260506044002 | 60 | 0 | 0.0 | 0.0 | 0.00 | 0.00 | 0.00 | 81 | 1015.2 |
| 20260506043502 | 60 | 0 | 0.0 | 0.0 | 0.00 | 0.00 | 0.00 | 81 | 1015.1 |
| 20260506043002 | 59 | 0 | 0.0 | 0.0 | 0.00 | 0.00 | 0.00 | 80 | 1015.1 |
| 20260506042502 | 59 | 267 | 0.0 | 1.0 | 0.00 | 0.00 | 0.00 | 80 | 1015.1 |
| 20260506042002 | 59 | 267 | 0.0 | 1.0 | 0.00 | 0.00 | 0.00 | 80 | 1014.9 |
| 20260506041502 | 59 | 267 | 0.0 | 1.0 | 0.00 | 0.00 | 0.00 | 80 | 1014.9 |
| 20260506041002 | 60 | 267 | 0.0 | 1.0 | 0.00 | 0.00 | 0.00 | 79 | 1015.0 |
| 20260506040502 | 60 | 0 | 0.0 | 0.0 | 0.00 | 0.00 | 0.00 | 79 | 1014.8 |
| 20260506040024 | 60 | 0 | 0.0 | 0.0 | 0.00 | 0.00 | 0.00 | 78 | 1014.8 |
| 20260506035502 | 60 | 0 | 0.0 | 0.0 | 0.00 | 0.00 | 0.00 | 77 | 1014.8 |
| 20260506035002 | 61 | 0 | 0.0 | 0.0 | 0.00 | 0.00 | 0.00 | 77 | 1014.7 |
| 20260506034502 | 61 | 0 | 0.0 | 0.0 | 0.00 | 0.00 | 0.00 | 77 | 1014.6 |
| 20260506034002 | 61 | 0 | 0.0 | 0.0 | 0.00 | 0.00 | 0.00 | 77 | 1014.5 |
| 20260506033502 | 61 | 0 | 0.0 | 0.0 | 0.00 | 0.00 | 0.00 | 76 | 1014.6 |
| 20260506033002 | 62 | 0 | 0.0 | 0.0 | 0.00 | 0.00 | 0.00 | 76 | 1014.7 |
| 20260506032502 | 62 | 0 | 0.0 | 0.0 | 0.00 | 0.00 | 0.00 | 75 | 1014.8 |
| 20260506032002 | 62 | 0 | 0.0 | 0.0 | 0.00 | 0.00 | 0.00 | 75 | 1014.8 |
| 20260506031502 | 62 | 0 | 0.0 | 0.0 | 0.00 | 0.00 | 0.00 | 74 | 1014.9 |
| 20260506031002 | 62 | 0 | 0.0 | 0.0 | 0.00 | 0.00 | 0.00 | 73 | 1014.8 |
| 20260506030502 | 62 | 0 | 0.0 | 0.0 | 0.00 | 0.00 | 0.00 | 73 | 1014.8 |
| 20260506030002 | 63 | 0 | 0.0 | 0.0 | 0.00 | 0.00 | 0.00 | 73 | 1014.9 |
| 20260506025502 | 63 | 0 | 0.0 | 0.0 | 0.00 | 0.00 | 0.00 | 73 | 1014.8 |
| 20260506025002 | 63 | 0 | 0.0 | 0.0 | 0.00 | 0.00 | 0.00 | 73 | 1014.9 |
| 20260506024523 | 63 | 0 | 0.0 | 0.0 | 0.00 | 0.00 | 0.00 | 73 | 1014.9 |
| 20260506024002 | 63 | 0 | 0.0 | 0.0 | 0.00 | 0.00 | 0.00 | 73 | 1014.9 |
| 20260506023502 | 63 | 0 | 0.0 | 0.0 | 0.00 | 0.00 | 0.00 | 73 | 1014.8 |
| 20260506023002 | 64 | 0 | 0.0 | 0.0 | 0.00 | 0.00 | 0.00 | 72 | 1014.8 |
| 20260506022502 | 64 | 0 | 0.0 | 0.0 | 0.00 | 0.00 | 0.00 | 71 | 1014.7 |
| 20260506022002 | 64 | 0 | 0.0 | 0.0 | 0.00 | 0.00 | 0.00 | 72 | 1014.6 |
| 20260506021523 | 64 | 0 | 0.0 | 0.0 | 0.00 | 0.00 | 0.00 | 72 | 1014.7 |
| 20260506021002 | 64 | 0 | 0.0 | 0.0 | 0.00 | 0.00 | 0.00 | 72 | 1014.6 |
| 20260506020502 | 65 | 0 | 0.0 | 0.0 | 0.00 | 0.00 | 0.00 | 72 | 1014.6 |
| 20260506020002 | 65 | 0 | 0.0 | 0.0 | 0.00 | 0.00 | 0.00 | 70 | 1014.6 |
| 20260506015523 | 65 | 0 | 0.0 | 0.0 | 0.00 | 0.00 | 0.00 | 70 | 1014.5 |
| 20260506015002 | 66 | 0 | 0.0 | 0.0 | 0.00 | 0.00 | 0.00 | 70 | 1014.6 |
| 20260506014502 | 66 | 0 | 0.0 | 0.0 | 0.00 | 0.00 | 0.00 | 69 | 1014.5 |
| 20260506014002 | 66 | 0 | 0.0 | 0.0 | 0.00 | 0.00 | 0.00 | 68 | 1014.6 |
| 20260506013502 | 66 | 0 | 0.0 | 0.0 | 0.00 | 0.00 | 0.00 | 67 | 1014.5 |
| 20260506013002 | 67 | 0 | 0.0 | 0.0 | 0.00 | 0.00 | 0.00 | 67 | 1014.5 |
| 20260506012502 | 67 | 0 | 0.0 | 0.0 | 0.00 | 0.00 | 0.00 | 66 | 1014.6 |
| 20260506012002 | 68 | 0 | 0.0 | 0.0 | 0.00 | 0.00 | 0.00 | 65 | 1014.5 |
| 20260506011502 | 68 | 0 | 0.0 | 0.0 | 0.00 | 0.00 | 0.00 | 63 | 1014.5 |
| 20260506011002 | 69 | 0 | 0.0 | 0.0 | 0.00 | 0.00 | 0.00 | 63 | 1014.4 |
| 20260506010502 | 69 | 0 | 0.0 | 0.0 | 0.00 | 0.00 | 0.00 | 62 | 1014.5 |
| 20260506010002 | 70 | 0 | 0.0 | 0.0 | 0.00 | 0.00 | 0.00 | 62 | 1014.4 |
| 20260506005502 | 70 | 0 | 0.0 | 0.0 | 0.00 | 0.00 | 0.00 | 61 | 1014.4 |
| 20260506005002 | 71 | 0 | 0.0 | 0.0 | 0.00 | 0.00 | 0.00 | 61 | 1014.3 |
| 20260506004502 | 72 | 0 | 0.0 | 0.0 | 0.00 | 0.00 | 0.00 | 61 | 1014.3 |
| 20260506004002 | 72 | 0 | 0.0 | 0.0 | 0.00 | 0.00 | 0.00 | 60 | 1014.3 |
| 20260506003502 | 73 | 0 | 0.0 | 0.0 | 0.00 | 0.00 | 0.00 | 61 | 1014.1 |
| 20260506003002 | 73 | 0 | 0.0 | 0.0 | 0.00 | 0.00 | 0.00 | 57 | 1014.1 |
| 20260506002502 | 74 | 0 | 0.0 | 0.0 | 0.00 | 0.00 | 0.00 | 56 | 1014.1 |
| 20260506002002 | 74 | 0 | 0.0 | 0.0 | 0.00 | 0.00 | 0.00 | 55 | 1014.0 |
| 20260506001502 | 75 | 0 | 0.0 | 0.0 | 0.00 | 0.00 | 0.00 | 55 | 1014.0 |
| 20260506001002 | 75 | 0 | 0.0 | 0.0 | 0.00 | 0.00 | 0.00 | 55 | 1013.9 |
| 20260506000502 | 76 | 0 | 0.0 | 0.0 | 0.00 | 0.00 | 0.00 | 55 | 1013.8 |
| 20260506000002 | 76 | 0 | 0.0 | 0.0 | 0.00 | 0.00 | 0.00 | 54 | 1013.7 |
| 20260505235502 | 76 | 0 | 0.0 | 0.0 | 0.00 | 0.00 | 0.00 | 50 | 1013.6 |
| 20260505235002 | 77 | 0 | 0.0 | 0.0 | 0.00 | 0.00 | 0.00 | 50 | 1013.6 |
| 20260505234502 | 77 | 0 | 0.0 | 0.0 | 0.00 | 0.00 | 0.00 | 50 | 1013.7 |
| 20260505234002 | 77 | 0 | 0.0 | 0.0 | 0.00 | 0.00 | 0.00 | 49 | 1013.5 |
| 20260505233502 | 78 | 251 | 0.0 | 2.0 | 0.00 | 0.00 | 0.00 | 49 | 1013.5 |
| 20260505233023 | 78 | 251 | 0.0 | 2.0 | 0.00 | 0.00 | 0.00 | 48 | 1013.4 |
| 20260505232502 | 78 | 0 | 0.0 | 0.0 | 0.00 | 0.00 | 0.00 | 47 | 1013.4 |
| 20260505232002 | 78 | 100 | 0.0 | 2.0 | 0.00 | 0.00 | 0.00 | 48 | 1013.4 |
| 20260505231523 | 78 | 100 | 0.0 | 2.0 | 0.00 | 0.00 | 0.00 | 47 | 1013.4 |
| 20260505231002 | 79 | 102 | 0.0 | 1.0 | 0.00 | 0.00 | 0.00 | 46 | 1013.3 |
| 20260505230502 | 79 | 101 | 0.0 | 1.0 | 0.00 | 0.00 | 0.00 | 45 | 1013.3 |
| 20260505230002 | 79 | 95 | 0.0 | 1.0 | 0.00 | 0.00 | 0.00 | 45 | 1013.3 |
| 20260505225502 | 79 | 88 | 0.0 | 1.0 | 0.00 | 0.00 | 0.00 | 46 | 1013.4 |
| 20260505225002 | 80 | 90 | 0.0 | 2.0 | 0.00 | 0.00 | 0.00 | 45 | 1013.3 |
| 20260505224502 | 80 | 106 | 0.0 | 2.0 | 0.00 | 0.00 | 0.00 | 44 | 1013.3 |
| 20260505224002 | 80 | 211 | 0.0 | 4.0 | 0.00 | 0.00 | 0.00 | 45 | 1013.4 |
| 20260505223502 | 80 | 205 | 0.0 | 4.0 | 0.00 | 0.00 | 0.00 | 44 | 1013.8 |
| 20260505223002 | 81 | 93 | 0.0 | 3.0 | 0.00 | 0.00 | 0.00 | 45 | 1013.6 |
| 20260505222502 | 81 | 100 | 1.0 | 3.0 | 0.00 | 0.00 | 0.00 | 44 | 1013.5 |
| 20260505222002 | 81 | 119 | 0.0 | 4.0 | 0.00 | 0.00 | 0.00 | 42 | 1013.7 |
| 20260505221502 | 82 | 219 | 0.0 | 4.0 | 0.00 | 0.00 | 0.00 | 42 | 1013.7 |
| 20260505221002 | 82 | 236 | 0.0 | 4.0 | 0.00 | 0.00 | 0.00 | 44 | 1013.7 |
| 20260505220502 | 82 | 173 | 0.0 | 4.0 | 0.00 | 0.00 | 0.00 | 44 | 1013.8 |
| 20260505220002 | 82 | 93 | 0.0 | 3.0 | 0.00 | 0.00 | 0.00 | 44 | 1013.9 |
| 20260505215502 | 82 | 92 | 0.0 | 3.0 | 0.00 | 0.00 | 0.00 | 43 | 1013.9 |
| 20260505215002 | 82 | 96 | 0.0 | 3.0 | 0.00 | 0.00 | 0.00 | 44 | 1013.9 |
| 20260505214502 | 82 | 103 | 0.0 | 3.0 | 0.00 | 0.00 | 0.00 | 43 | 1013.8 |
| 20260505214002 | 82 | 100 | 0.0 | 2.0 | 0.00 | 0.00 | 0.00 | 43 | 1013.8 |
| 20260505213502 | 82 | 171 | 0.0 | 3.0 | 0.00 | 0.00 | 0.00 | 43 | 1013.8 |
| 20260505213023 | 82 | 105 | 0.0 | 4.0 | 0.00 | 0.00 | 0.00 | 43 | 1013.8 |
| 20260505212502 | 82 | 91 | 0.0 | 4.0 | 0.00 | 0.00 | 0.00 | 42 | 1013.8 |
| 20260505212023 | 82 | 87 | 0.0 | 2.0 | 0.00 | 0.00 | 0.00 | 43 | 1013.8 |
| 20260505211502 | 82 | 93 | 0.0 | 2.0 | 0.00 | 0.00 | 0.00 | 43 | 1013.9 |
| 20260505211002 | 82 | 98 | 0.0 | 2.0 | 0.00 | 0.00 | 0.00 | 44 | 1013.9 |
| 20260505210502 | 83 | 106 | 0.0 | 2.0 | 0.00 | 0.00 | 0.00 | 44 | 1013.9 |
| 20260505210002 | 84 | 222 | 1.0 | 5.0 | 0.00 | 0.00 | 0.00 | 42 | 1013.9 |
| 20260505205502 | 84 | 219 | 1.0 | 5.0 | 0.00 | 0.00 | 0.00 | 42 | 1014.2 |
| 20260505205002 | 83 | 213 | 1.0 | 7.0 | 0.00 | 0.00 | 0.00 | 43 | 1014.1 |
| 20260505204523 | 83 | 209 | 0.0 | 7.0 | 0.00 | 0.00 | 0.00 | 42 | 1014.2 |
| 20260505204023 | 83 | 164 | 0.0 | 3.0 | 0.00 | 0.00 | 0.00 | 44 | 1014.2 |
| 20260505203502 | 83 | 142 | 0.0 | 3.0 | 0.00 | 0.00 | 0.00 | 44 | 1014.3 |
| 20260505203023 | 82 | 102 | 0.0 | 3.0 | 0.00 | 0.00 | 0.00 | 47 | 1014.2 |
| 20260505202502 | 81 | 95 | 0.0 | 3.0 | 0.00 | 0.00 | 0.00 | 46 | 1014.2 |
| 20260505202002 | 82 | 103 | 0.0 | 3.0 | 0.00 | 0.00 | 0.00 | 45 | 1014.3 |
| 20260505201502 | 83 | 130 | 0.0 | 3.0 | 0.00 | 0.00 | 0.00 | 44 | 1014.2 |
| 20260505201002 | 83 | 182 | 0.0 | 2.0 | 0.00 | 0.00 | 0.00 | 44 | 1014.4 |
| 20260505200502 | 83 | 113 | 1.0 | 5.0 | 0.00 | 0.00 | 0.00 | 44 | 1014.5 |
| 20260505200002 | 83 | 175 | 1.0 | 6.0 | 0.00 | 0.00 | 0.00 | 45 | 1014.5 |
| 20260505195502 | 83 | 246 | 0.0 | 8.0 | 0.00 | 0.00 | 0.00 | 45 | 1014.6 |
| 20260505195002 | 82 | 196 | 0.0 | 8.0 | 0.00 | 0.00 | 0.00 | 45 | 1014.6 |
| 20260505194502 | 82 | 190 | 1.0 | 7.0 | 0.00 | 0.00 | 0.00 | 44 | 1014.7 |
| 20260505194002 | 82 | 179 | 0.0 | 7.0 | 0.00 | 0.00 | 0.00 | 44 | 1014.8 |
| 20260505193502 | 82 | 100 | 1.0 | 4.0 | 0.00 | 0.00 | 0.00 | 44 | 1014.8 |
| 20260505193002 | 82 | 101 | 1.0 | 4.0 | 0.00 | 0.00 | 0.00 | 43 | 1014.9 |
| 20260505192502 | 82 | 105 | 0.0 | 3.0 | 0.00 | 0.00 | 0.00 | 44 | 1015.0 |
| 20260505192002 | 82 | 183 | 1.0 | 8.0 | 0.00 | 0.00 | 0.00 | 45 | 1015.1 |
| 20260505191502 | 81 | 224 | 1.0 | 8.0 | 0.00 | 0.00 | 0.00 | 45 | 1015.1 |
| 20260505191002 | 81 | 103 | 1.0 | 6.0 | 0.00 | 0.00 | 0.00 | 45 | 1015.2 |
| 20260505190502 | 81 | 94 | 1.0 | 6.0 | 0.00 | 0.00 | 0.00 | 45 | 1015.3 |
| 20260505190002 | 81 | 93 | 1.0 | 3.0 | 0.00 | 0.00 | 0.00 | 48 | 1015.4 |
| 20260505185502 | 80 | 106 | 1.0 | 3.0 | 0.00 | 0.00 | 0.00 | 49 | 1015.6 |
| 20260505185023 | 80 | 121 | 0.0 | 2.0 | 0.00 | 0.00 | 0.00 | 48 | 1015.8 |
| 20260505184502 | 79 | 103 | 0.0 | 2.0 | 0.00 | 0.00 | 0.00 | 51 | 1015.9 |
| 20260505184002 | 79 | 94 | 1.0 | 3.0 | 0.00 | 0.00 | 0.00 | 49 | 1016.0 |
| 20260505183523 | 79 | 92 | 1.0 | 3.0 | 0.00 | 0.00 | 0.00 | 51 | 1015.9 |
| 20260505183002 | 80 | 93 | 1.0 | 3.0 | 0.00 | 0.00 | 0.00 | 48 | 1016.0 |
| 20260505182502 | 79 | 95 | 0.0 | 3.0 | 0.00 | 0.00 | 0.00 | 49 | 1016.0 |
| 20260505182002 | 79 | 93 | 0.0 | 2.0 | 0.00 | 0.00 | 0.00 | 47 | 1015.9 |
| 20260505181502 | 80 | 85 | 0.0 | 2.0 | 0.00 | 0.00 | 0.00 | 48 | 1016.0 |
| 20260505181002 | 80 | 90 | 0.0 | 3.0 | 0.00 | 0.00 | 0.00 | 48 | 1016.2 |
| 20260505180502 | 80 | 96 | 0.0 | 3.0 | 0.00 | 0.00 | 0.00 | 51 | 1016.3 |
| 20260505180002 | 79 | 103 | 0.0 | 2.0 | 0.00 | 0.00 | 0.00 | 50 | 1016.3 |
| 20260505175502 | 79 | 114 | 0.0 | 2.0 | 0.00 | 0.00 | 0.00 | 50 | 1016.3 |
| 20260505175002 | 80 | 103 | 0.0 | 6.0 | 0.00 | 0.00 | 0.00 | 49 | 1016.1 |
| 20260505174502 | 80 | 96 | 0.0 | 6.0 | 0.00 | 0.00 | 0.00 | 49 | 1016.3 |
| 20260505174023 | 80 | 120 | 0.0 | 3.0 | 0.00 | 0.00 | 0.00 | 49 | 1016.3 |
| 20260505173523 | 80 | 129 | 0.0 | 3.0 | 0.00 | 0.00 | 0.00 | 49 | 1016.3 |
| 20260505173002 | 80 | 103 | 0.0 | 3.0 | 0.00 | 0.00 | 0.00 | 50 | 1016.5 |
| 20260505172502 | 80 | 99 | 0.0 | 2.0 | 0.00 | 0.00 | 0.00 | 49 | 1016.6 |
| 20260505172002 | 80 | 111 | 0.0 | 3.0 | 0.00 | 0.00 | 0.00 | 48 | 1016.6 |
| 20260505171502 | 80 | 114 | 1.0 | 3.0 | 0.00 | 0.00 | 0.00 | 48 | 1016.6 |
| 20260505171002 | 80 | 128 | 0.0 | 2.0 | 0.00 | 0.00 | 0.00 | 51 | 1016.8 |
| 20260505170502 | 80 | 102 | 1.0 | 3.0 | 0.00 | 0.00 | 0.00 | 49 | 1016.7 |
| 20260505170002 | 80 | 115 | 1.0 | 5.0 | 0.00 | 0.00 | 0.00 | 50 | 1016.7 |
| 20260505165502 | 80 | 136 | 1.0 | 5.0 | 0.00 | 0.00 | 0.00 | 49 | 1016.8 |
| 20260505165002 | 80 | 121 | 0.0 | 3.0 | 0.00 | 0.00 | 0.00 | 50 | 1016.8 |
| 20260505164502 | 79 | 166 | 1.0 | 3.0 | 0.00 | 0.00 | 0.00 | 51 | 1016.9 |
| 20260505164002 | 79 | 206 | 0.0 | 3.0 | 0.00 | 0.00 | 0.00 | 53 | 1017.1 |
| 20260505163502 | 78 | 331 | 0.0 | 3.0 | 0.00 | 0.00 | 0.00 | 53 | 1017.0 |
| 20260505163002 | 78 | 57 | 0.0 | 2.0 | 0.00 | 0.00 | 0.00 | 55 | 1017.0 |
| 20260505162502 | 77 | 101 | 0.0 | 2.0 | 0.00 | 0.00 | 0.00 | 57 | 1017.0 |
| 20260505162002 | 77 | 179 | 0.0 | 4.0 | 0.00 | 0.00 | 0.00 | 58 | 1017.1 |
| 20260505161502 | 76 | 180 | 1.0 | 4.0 | 0.00 | 0.00 | 0.00 | 58 | 1017.2 |
| 20260505161002 | 76 | 122 | 0.0 | 4.0 | 0.00 | 0.00 | 0.00 | 58 | 1017.2 |
| 20260505160502 | 76 | 100 | 0.0 | 4.0 | 0.00 | 0.00 | 0.00 | 60 | 1017.2 |
| 20260505153023 | 73 | 96 | 0.0 | 3.0 | 0.00 | 0.00 | 0.00 | 64 | 1017.2 |
| 20260505152502 | 72 | 96 | 0.0 | 3.0 | 0.00 | 0.00 | 0.00 | 66 | 1017.4 |
| 20260505152002 | 72 | 95 | 0.0 | 2.0 | 0.00 | 0.00 | 0.00 | 66 | 1017.4 |
| 20260505151502 | 72 | 265 | 0.0 | 4.0 | 0.00 | 0.00 | 0.00 | 67 | 1017.4 |
| 20260505151002 | 71 | 246 | 0.0 | 6.0 | 0.00 | 0.00 | 0.00 | 67 | 1017.5 |
| 20260505150502 | 71 | 127 | 0.0 | 6.0 | 0.00 | 0.00 | 0.00 | 70 | 1017.4 |
| 20260505140502 | 66 | 176 | 0.0 | 3.0 | 0.00 | 0.00 | 0.00 | 80 | 1017.2 |
| 20260505125002 | 56 | 103 | 0.0 | 1.0 | 0.00 | 0.00 | 0.00 | 97 | 1017.3 |
| 20260505124523 | 56 | 0 | 0.0 | 0.0 | 0.00 | 0.00 | 0.00 | 96 | 1017.2 |
| 20260505124002 | 55 | 103 | 0.0 | 1.0 | 0.00 | 0.00 | 0.00 | 96 | 1017.1 |
| 20260505123502 | 55 | 103 | 0.0 | 1.0 | 0.00 | 0.00 | 0.00 | 96 | 1017.2 |
| 20260505123002 | 54 | 103 | 0.0 | 1.0 | 0.00 | 0.00 | 0.00 | 96 | 1017.1 |
| 20260505122502 | 54 | 104 | 0.0 | 1.0 | 0.00 | 0.00 | 0.00 | 96 | 1017.1 |
| 20260505122002 | 53 | 0 | 0.0 | 0.0 | 0.00 | 0.00 | 0.00 | 96 | 1017.0 |
| 20260505121502 | 53 | 0 | 0.0 | 0.0 | 0.00 | 0.00 | 0.00 | 96 | 1016.9 |
| 20260505121002 | 52 | 0 | 0.0 | 0.0 | 0.00 | 0.00 | 0.00 | 95 | 1016.8 |
| 20260505120502 | 52 | 0 | 0.0 | 0.0 | 0.00 | 0.00 | 0.00 | 95 | 1016.7 |
| 20260505120002 | 52 | 0 | 0.0 | 0.0 | 0.00 | 0.00 | 0.00 | 95 | 1016.8 |
| 20260505115502 | 51 | 0 | 0.0 | 0.0 | 0.00 | 0.00 | 0.00 | 94 | 1016.6 |
| 20260505115002 | 51 | 0 | 0.0 | 0.0 | 0.00 | 0.00 | 0.00 | 93 | 1016.6 |
| 20260505114502 | 51 | 0 | 0.0 | 0.0 | 0.00 | 0.00 | 0.00 | 93 | 1016.6 |
| 20260505114023 | 50 | 0 | 0.0 | 0.0 | 0.00 | 0.00 | 0.00 | 91 | 1016.6 |
| 20260505113523 | 50 | 0 | 0.0 | 0.0 | 0.00 | 0.00 | 0.00 | 91 | 1016.6 |
| 20260505113002 | 50 | 0 | 0.0 | 0.0 | 0.00 | 0.00 | 0.00 | 90 | 1016.5 |
| 20260505112502 | 50 | 0 | 0.0 | 0.0 | 0.00 | 0.00 | 0.00 | 90 | 1016.5 |
| 20260505112023 | 50 | 0 | 0.0 | 0.0 | 0.00 | 0.00 | 0.00 | 90 | 1016.4 |
| 20260505111502 | 50 | 0 | 0.0 | 0.0 | 0.00 | 0.00 | 0.00 | 90 | 1016.4 |
| 20260505111023 | 50 | 0 | 0.0 | 0.0 | 0.00 | 0.00 | 0.00 | 90 | 1016.4 |
| 20260505110502 | 50 | 0 | 0.0 | 0.0 | 0.00 | 0.00 | 0.00 | 90 | 1016.2 |
| 20260505102023 | 50 | 0 | 0.0 | 0.0 | 0.00 | 0.00 | 0.00 | 88 | 1015.8 |
| 20260505101502 | 50 | 0 | 0.0 | 0.0 | 0.00 | 0.00 | 0.00 | 87 | 1015.8 |
| 20260505101002 | 50 | 0 | 0.0 | 0.0 | 0.00 | 0.00 | 0.00 | 87 | 1015.8 |
| 20260505100502 | 50 | 0 | 0.0 | 0.0 | 0.00 | 0.00 | 0.00 | 87 | 1015.9 |
| 20260505100002 | 50 | 0 | 0.0 | 0.0 | 0.00 | 0.00 | 0.00 | 87 | 1016.0 |
| 20260505095502 | 51 | 0 | 0.0 | 0.0 | 0.00 | 0.00 | 0.00 | 87 | 1016.0 |
| 20260505095002 | 51 | 0 | 0.0 | 0.0 | 0.00 | 0.00 | 0.00 | 87 | 1016.1 |
| 20260505094523 | 51 | 0 | 0.0 | 0.0 | 0.00 | 0.00 | 0.00 | 87 | 1016.1 |
| 20260505094002 | 51 | 0 | 0.0 | 0.0 | 0.00 | 0.00 | 0.00 | 87 | 1016.2 |
| 20260505093523 | 51 | 0 | 0.0 | 0.0 | 0.00 | 0.00 | 0.00 | 87 | 1016.3 |
| 20260505093002 | 52 | 0 | 0.0 | 0.0 | 0.00 | 0.00 | 0.00 | 87 | 1016.2 |
| 20260505092502 | 52 | 0 | 0.0 | 0.0 | 0.00 | 0.00 | 0.00 | 87 | 1016.3 |
| 20260505092002 | 52 | 0 | 0.0 | 0.0 | 0.00 | 0.00 | 0.00 | 87 | 1016.3 |
| 20260505091502 | 52 | 0 | 0.0 | 0.0 | 0.00 | 0.00 | 0.00 | 87 | 1016.2 |
| 20260505091002 | 52 | 0 | 0.0 | 0.0 | 0.00 | 0.00 | 0.00 | 87 | 1016.2 |
| 20260505090524 | 52 | 0 | 0.0 | 0.0 | 0.00 | 0.00 | 0.00 | 87 | 1016.2 |
| 20260505090002 | 52 | 0 | 0.0 | 0.0 | 0.00 | 0.00 | 0.00 | 87 | 1016.3 |
| 20260505085502 | 52 | 0 | 0.0 | 0.0 | 0.00 | 0.00 | 0.00 | 87 | 1016.3 |
| 20260505085023 | 52 | 0 | 0.0 | 0.0 | 0.00 | 0.00 | 0.00 | 87 | 1016.3 |
| 20260505084502 | 52 | 0 | 0.0 | 0.0 | 0.00 | 0.00 | 0.00 | 87 | 1016.2 |
| 20260505084002 | 52 | 0 | 0.0 | 0.0 | 0.00 | 0.00 | 0.00 | 87 | 1016.2 |
| 20260505083502 | 52 | 0 | 0.0 | 0.0 | 0.00 | 0.00 | 0.00 | 87 | 1016.1 |
| 20260505083002 | 52 | 0 | 0.0 | 0.0 | 0.00 | 0.00 | 0.00 | 86 | 1015.9 |
| 20260505082502 | 53 | 0 | 0.0 | 0.0 | 0.00 | 0.00 | 0.00 | 86 | 1015.9 |
| 20260505082002 | 53 | 0 | 0.0 | 0.0 | 0.00 | 0.00 | 0.00 | 86 | 1015.9 |
| 20260505081502 | 53 | 0 | 0.0 | 0.0 | 0.00 | 0.00 | 0.00 | 86 | 1016.0 |
| 20260505081023 | 53 | 0 | 0.0 | 0.0 | 0.00 | 0.00 | 0.00 | 86 | 1016.0 |
| 20260505080523 | 53 | 0 | 0.0 | 0.0 | 0.00 | 0.00 | 0.00 | 86 | 1016.0 |
| 20260505080023 | 53 | 0 | 0.0 | 0.0 | 0.00 | 0.00 | 0.00 | 85 | 1016.0 |
| 20260505075523 | 53 | 0 | 0.0 | 0.0 | 0.00 | 0.00 | 0.00 | 85 | 1016.0 |
| 20260505075002 | 53 | 0 | 0.0 | 0.0 | 0.00 | 0.00 | 0.00 | 85 | 1016.0 |
| 20260505074502 | 53 | 0 | 0.0 | 0.0 | 0.00 | 0.00 | 0.00 | 85 | 1015.9 |
| 20260505074002 | 53 | 0 | 0.0 | 0.0 | 0.00 | 0.00 | 0.00 | 85 | 1015.8 |
| 20260505073502 | 53 | 0 | 0.0 | 0.0 | 0.00 | 0.00 | 0.00 | 85 | 1015.8 |
| 20260505073002 | 53 | 0 | 0.0 | 0.0 | 0.00 | 0.00 | 0.00 | 84 | 1015.8 |
| 20260505072502 | 54 | 0 | 0.0 | 0.0 | 0.00 | 0.00 | 0.00 | 84 | 1015.8 |
| 20260505072023 | 54 | 0 | 0.0 | 0.0 | 0.00 | 0.00 | 0.00 | 84 | 1015.9 |
| 20260505071523 | 54 | 0 | 0.0 | 0.0 | 0.00 | 0.00 | 0.00 | 84 | 1015.9 |
| 20260505071002 | 54 | 0 | 0.0 | 0.0 | 0.00 | 0.00 | 0.00 | 84 | 1016.0 |
| 20260505070502 | 54 | 0 | 0.0 | 0.0 | 0.00 | 0.00 | 0.00 | 84 | 1015.9 |
| 20260505070002 | 54 | 0 | 0.0 | 0.0 | 0.00 | 0.00 | 0.00 | 84 | 1016.0 |